Zurück zum Katalog

FENGYUN 1C DEB

AktivSSO
NORAD 30640·DEBRIS·🇨🇳 China

Gestartet May 10, 1999 von Taiyuan Satellite Launch Center

Loading…

Nächste Überflüge (nächste 24 Stunden)

TLE

AktuellSource: Space-Track

Epoche: Sep 14, 2026, 11:57 UTC

1 30640U 99025ANX 26257.49842571  .00001282  00000-0  65428-3 0  9991
2 30640  99.0413 337.6950 0079087  40.8455  80.1219 14.15911836  3453

Verfolge FENGYUN 1C DEB in Echtzeit mit AllMySat

Download on the App Store